[[{"header":{"parameterUnit":"m.s-1","parameterCategory":1,"la1":30.2991,"la2":30.254,"lo1":-89.0895,"lo2":-89.0444,"dy":0.0017,"dx":0.0017,"nx":28,"ny":28,"refTime":"2024-07-18T03:00:00:Z","depth":0,"parameterNumber":2,"parameterNumberName":"U-component_of_WINDS"},"data":[0,0,0,0,0,0,0,0,0,0,0,0,0,0,0,0,0,0,0,0,0,0,0,0,0,0,0,0,0,0,0,0,0,0,0,0,0,0,0,0,0,0,0,0,0,0,0,0,0,0,0,0,0,0,0,0,0,0,1.8952,1.8953,0,1.9044,1.9045,1.9046,1.9109,1.9109,1.911,1.911,1.9204,1.9206,1.9208,0,0,0,0,0,0,0,0,0,0,0,0,0,1.8831,1.8833,1.8952,1.8953,1.8955,1.9044,1.9045,1.9047,1.9109,1.9109,1.911,1.911,1.9203,1.9205,1.9208,0,0,0,0,0,0,0,0,0,0,0,0,0,1.8899,1.8834,1.8952,1.8996,1.9001,1.9044,1.9045,1.9047,1.9109,1.9109,1.911,1.9111,1.9202,1.9205,1.9208,1.9214,0,0,1.9218,1.9219,0,0,0,0,0,0,0,0,1.8895,1.8904,1.8989,1.8993,1.8999,1.9066,1.9037,1.9103,1.9108,1.9068,1.911,1.9111,1.9157,1.9164,1.918,1.9218,1.9222,1.9218,1.922,1.9221,1.9222,0,0,0,0,0,0,0,1.8891,1.89,1.8989,1.899,1.8996,1.9012,1.9022,1.905,1.9107,1.9071,1.9076,1.9086,1.916,1.9176,1.9182,1.9223,1.9218,1.9221,1.9222,1.9224,1.9272,1.9271,0,0,0,0,0,0,1.8879,1.8896,1.8986,1.8991,1.8948,1.9013,1.9025,1.9044,1.9107,1.9118,1.9086,1.9089,1.9171,1.9179,1.9186,1.9197,1.9221,1.9224,1.9226,1.9272,1.9271,1.9271,0,0,0,0,0,0,1.8876,1.8886,1.8982,1.8945,1.8958,1.9015,1.9035,1.9045,1.9062,1.9118,1.9129,1.9092,1.9172,1.9181,1.9206,1.9201,1.9225,1.9228,1.9273,1.9272,1.9271,1.9217,0,0,0,0,0,0,1.8872,1.8885,1.8887,1.8944,1.896,1.9001,1.9035,1.9046,1.9067,1.9072,1.9127,1.9136,1.9173,1.9201,1.9209,1.9205,1.9231,1.9274,1.9272,1.9271,1.922,1.9215,1.9211,0,0,0,0,0,1.8868,1.8868,1.8887,1.8898,1.8964,1.9,1.9009,1.9051,1.9066,1.9069,1.9106,1.9135,1.92,1.9203,1.9213,1.921,1.9274,1.9273,1.9272,1.9222,1.9216,1.9211,0,0,0,0,0,0,1.8808,1.8876,1.8898,1.8917,1.8952,1.9011,1.9015,1.9043,1.9075,1.9078,1.913,1.9141,1.9161,1.9188,1.9191,1.9219,1.9241,1.9241,1.92,1.9195,1.919,1.9182,1.9233,0,0,0,0,0,1.8797,1.8821,1.8879,1.889,1.8907,1.8958,1.8975,1.9005,1.9044,1.9059,1.9097,1.9133,1.9163,1.918,1.921,1.9225,1.9238,1.9228,1.9223,1.9219,1.9218,1.9228,1.9224,1.9267,1.9267,1.9267,0,0,1.8775,1.8815,1.8827,1.888,1.891,1.8934,1.897,1.8993,1.9011,1.9062,1.9088,1.9118,1.9162,1.9182,1.9192,1.9205,1.9209,1.9217,1.9213,1.9215,1.9226,1.9222,1.9219,1.9266,1.9266,1.9266,0,0,1.8746,1.8779,1.8792,1.8822,1.8869,1.8903,1.8906,1.8961,1.8982,1.9009,1.9049,1.9071,1.912,1.9149,1.9171,1.9155,1.9182,1.9163,1.9138,1.9147,1.9144,1.9141,1.9134,1.9132,1.9163,1.9163,1.9162,0,1.8711,1.8748,1.8795,1.8816,1.8838,1.8887,1.89,1.8928,1.8981,1.8995,1.9009,1.9072,1.9105,1.9132,1.9128,1.9145,1.915,1.9156,1.914,1.9138,1.9136,1.9131,1.9128,1.916,1.916,1.916,1.9161,0,1.8704,1.8729,1.8734,1.8785,1.8808,1.8825,1.8875,1.8892,1.8921,1.8954,1.8981,1.9022,1.9061,1.9071,1.9098,1.9103,1.9109,1.9131,1.9154,1.9129,1.9124,1.9123,1.9156,1.9157,1.9158,1.9158,0,0,1.8638,1.8716,1.8717,1.8741,1.8797,1.8817,1.8837,1.8876,1.889,1.8926,1.8943,1.8984,1.9005,1.9029,1.9061,1.9069,1.9054,1.9091,1.9092,1.9081,1.9061,1.9043,1.904,1.9073,1.9073,1.9073,1.9057,0,1.8616,1.8654,1.8697,1.872,1.8744,1.8792,1.8809,1.8845,1.8877,1.8902,1.8937,1.8965,1.8991,1.9006,1.9016,1.9053,1.905,1.9055,1.909,1.909,1.9076,1.9038,1.9019,1.9001,1.9055,1.9055,1.9055,0,1.8596,1.863,1.8655,1.871,1.8721,1.8736,1.8776,1.8799,1.8841,1.8864,1.8892,1.8926,1.895,1.8971,1.9004,1.9006,1.9023,1.9044,1.9044,1.9048,1.907,1.9039,1.8997,1.8993,1.9053,1.9053,1.9053,0,1.8544,1.8596,1.8619,1.8638,1.8702,1.8711,1.8739,1.8782,1.8803,1.8838,1.8852,1.8888,1.8908,1.8936,1.898,1.8991,1.9008,1.9033,1.9027,1.9025,1.9026,1.9025,1.8985,1.904,1.904,1.904,1.904,0,1.8515,1.8528,1.8596,1.8609,1.8626,1.8676,1.8692,1.8723,1.8761,1.8782,1.8826,1.8844,1.8901,1.8926,1.896,1.8982,1.8991,1.901,1.9018,1.9005,1.9002,1.9015,1.9017,1.9039,1.9039,1.9039,1.9039,0,1.8458,1.8505,1.8532,1.8591,1.8607,1.8616,1.8667,1.8682,1.8717,1.8742,1.8751,1.8806,1.8838,1.8885,1.893,1.8954,1.897,1.8985,1.8955,1.896,1.8951,1.8951,1.8916,1.8914,1.8971,1.897,1.897,0,1.8436,1.8448,1.8509,1.8526,1.8552,1.8578,1.86,1.8651,1.8672,1.8722,1.873,1.8766,1.8797,1.8845,1.8889,1.8925,1.894,1.8926,1.8945,1.8932,1.8938,1.8936,1.8938,1.892,1.8919,1.8918,1.8918,0,1.8391,1.8414,1.8443,1.8482,1.8506,1.8539,1.8573,1.8585,1.8643,1.8664,1.8697,1.8721,1.8769,1.8803,1.8845,1.8873,1.8905,1.8912,1.8912,1.8897,1.8879,1.8888,1.8941,1.8912,1.8912,1.8913,1.8913,1.8913,1.835,1.8363,1.8408,1.844,1.8472,1.8503,1.852,1.8558,1.8587,1.8629,1.8658,1.8689,1.8733,1.8792,1.8819,1.8844,1.8857,1.8858,1.8858,1.8857,1.8852,1.8877,1.8852,1.8852,1.8853,1.8853,1.8853,0,1.8306,1.8338,1.8367,1.8415,1.844,1.8469,1.8509,1.8528,1.8555,1.8593,1.8623,1.8662,1.8696,1.8743,1.878,1.8792,1.8807,1.88,1.8798,1.8804,1.8838,1.8834,1.8786,1.8786,1.8786,1.8787,1.8787,1.8787,1.8286,1.8309,1.8338,1.8377,1.8409,1.844,1.8461,1.849,1.8521,1.8562,1.859,1.8621,1.8663,1.8704,1.8737,1.875,1.8761,1.8748,1.8766,1.8796,1.8802,1.8808,1.8804,1.8751,1.8751,1.873,1.8729,1.8729]},{"header":{"parameterUnit":"m.s-1","parameterCategory":1,"la1":30.2991,"la2":30.254,"lo1":-89.0895,"lo2":-89.0444,"dy":0.0017,"dx":0.0017,"nx":28,"ny":28,"refTime":"2024-07-18T03:00:00:Z","depth":0,"parameterNumber":3,"parameterNumberName":"V-component_of_WINDS"},"data":[0,0,0,0,0,0,0,0,0,0,0,0,0,0,0,0,0,0,0,0,0,0,0,0,0,0,0,0,0,0,0,0,0,0,0,0,0,0,0,0,0,0,0,0,0,0,0,0,0,0,0,0,0,0,0,0,0,0,0.3526,0.3527,0,0.3614,0.3615,0.3616,0.3665,0.3665,0.3665,0.3666,0.3758,0.376,0.3763,0,0,0,0,0,0,0,0,0,0,0,0,0,0.3399,0.3401,0.3526,0.3527,0.3528,0.3614,0.3615,0.3616,0.3665,0.3665,0.3665,0.3666,0.3757,0.376,0.3763,0,0,0,0,0,0,0,0,0,0,0,0,0,0.3467,0.3401,0.3525,0.3562,0.3567,0.3614,0.3615,0.3617,0.3665,0.3665,0.3665,0.3666,0.3756,0.376,0.3763,0.3781,0,0,0.3774,0.3776,0,0,0,0,0,0,0,0,0.3463,0.3472,0.3556,0.356,0.3565,0.3629,0.3604,0.3672,0.3665,0.3628,0.3666,0.3666,0.3715,0.3722,0.3738,0.3785,0.3789,0.3774,0.3776,0.3778,0.3779,0,0,0,0,0,0,0,0.3458,0.3468,0.3561,0.3557,0.3563,0.3575,0.3584,0.3617,0.3669,0.3631,0.3635,0.3644,0.3718,0.3735,0.3741,0.3791,0.3774,0.3777,0.378,0.3781,0.3853,0.3853,0,0,0,0,0,0,0.3448,0.3464,0.3558,0.3563,0.3513,0.3577,0.3588,0.3608,0.3669,0.3678,0.3644,0.3646,0.3729,0.3737,0.3744,0.3767,0.3778,0.3781,0.3783,0.3853,0.3853,0.3853,0,0,0,0,0,0,0.3445,0.3456,0.3554,0.3515,0.3528,0.3579,0.3601,0.361,0.3627,0.3679,0.3689,0.3652,0.3729,0.3739,0.377,0.3771,0.3783,0.3786,0.3853,0.3853,0.3853,0.3813,0,0,0,0,0,0,0.3441,0.3454,0.3462,0.3514,0.353,0.3579,0.3601,0.3611,0.3633,0.3636,0.3689,0.3698,0.373,0.3765,0.3774,0.3776,0.3789,0.3854,0.3853,0.3853,0.3814,0.3811,0.3808,0,0,0,0,0,0.3436,0.3448,0.3462,0.3473,0.3541,0.3579,0.3588,0.3624,0.3632,0.364,0.3673,0.3696,0.3769,0.3768,0.3778,0.3781,0.3854,0.3853,0.3853,0.3816,0.3812,0.3809,0,0,0,0,0,0,0.3396,0.3456,0.3472,0.3501,0.3534,0.3587,0.3599,0.3619,0.3652,0.3654,0.3698,0.3709,0.3736,0.3762,0.3759,0.3799,0.3814,0.3815,0.3782,0.3779,0.3776,0.3769,0.3792,0,0,0,0,0,0.339,0.3416,0.3468,0.3489,0.3504,0.3548,0.3566,0.3591,0.3627,0.3642,0.3678,0.3712,0.3743,0.3762,0.3793,0.3818,0.3829,0.3825,0.3822,0.3819,0.382,0.3832,0.383,0.3851,0.3851,0.3851,0,0,0.338,0.3415,0.343,0.3481,0.351,0.3535,0.356,0.3587,0.3606,0.3647,0.3677,0.3704,0.3746,0.3773,0.3787,0.3795,0.3816,0.3819,0.3816,0.3819,0.3832,0.383,0.3828,0.3851,0.3851,0.3851,0,0,0.3372,0.3403,0.3422,0.345,0.3492,0.352,0.3525,0.3574,0.3592,0.3624,0.3654,0.3677,0.3729,0.3757,0.3778,0.3776,0.3798,0.3785,0.377,0.3782,0.378,0.3779,0.3776,0.3775,0.3786,0.3786,0.3786,0,0.3354,0.3394,0.343,0.3454,0.3475,0.3511,0.353,0.3555,0.3605,0.3619,0.3627,0.3691,0.3722,0.3755,0.3754,0.377,0.3775,0.378,0.3777,0.3776,0.3775,0.3774,0.3773,0.3784,0.3784,0.3784,0.3785,0,0.3367,0.3394,0.3405,0.345,0.3473,0.3494,0.3533,0.3551,0.3572,0.3599,0.3629,0.3667,0.3705,0.3714,0.3737,0.3749,0.3753,0.3769,0.3784,0.3771,0.377,0.377,0.3781,0.3782,0.3783,0.3783,0,0,0.3341,0.3403,0.3406,0.3426,0.3473,0.3495,0.3517,0.3552,0.3566,0.3598,0.3617,0.3659,0.3672,0.3696,0.3721,0.3731,0.3724,0.3745,0.3747,0.3739,0.3738,0.3725,0.3724,0.3739,0.3739,0.3739,0.3734,0,0.334,0.338,0.3412,0.3441,0.3464,0.3497,0.3516,0.3546,0.3571,0.3595,0.3623,0.3651,0.3667,0.3681,0.3692,0.3723,0.3725,0.3724,0.3756,0.3757,0.3744,0.3724,0.3712,0.3705,0.3734,0.3734,0.3734,0,0.3345,0.3374,0.3404,0.3446,0.3457,0.3473,0.3507,0.3529,0.3563,0.3581,0.3604,0.363,0.3653,0.3665,0.3697,0.3696,0.3711,0.3727,0.3728,0.3732,0.3744,0.3727,0.3704,0.3703,0.3734,0.3734,0.3734,0,0.332,0.3367,0.339,0.3406,0.3456,0.3466,0.3487,0.3522,0.354,0.3569,0.3581,0.3613,0.363,0.3653,0.3686,0.3692,0.3714,0.3729,0.3728,0.3727,0.3732,0.3731,0.371,0.3742,0.3742,0.3742,0.3742,0,0.3316,0.3333,0.3379,0.3394,0.3413,0.3448,0.3466,0.349,0.3519,0.3538,0.3569,0.3586,0.3628,0.365,0.3675,0.3696,0.3705,0.3719,0.3725,0.3716,0.3713,0.3726,0.3727,0.3742,0.3742,0.3742,0.3742,0,0.3292,0.3324,0.3351,0.3394,0.3405,0.3417,0.3454,0.3469,0.3494,0.3517,0.3525,0.3565,0.3591,0.3626,0.3665,0.3681,0.3699,0.371,0.3687,0.3691,0.3687,0.3686,0.3673,0.3672,0.3705,0.3705,0.3704,0,0.3287,0.3301,0.3344,0.3358,0.3377,0.34,0.3418,0.3452,0.3469,0.3507,0.3516,0.3545,0.357,0.361,0.3643,0.3672,0.3682,0.3676,0.3687,0.3676,0.3681,0.3679,0.3679,0.3673,0.3672,0.3672,0.3672,0,0.3274,0.3288,0.3312,0.3341,0.336,0.3385,0.3411,0.342,0.3459,0.3477,0.3503,0.3522,0.3559,0.3587,0.3619,0.3641,0.3662,0.3667,0.3668,0.3658,0.3644,0.365,0.3678,0.3668,0.3668,0.3668,0.3669,0.3669,0.326,0.3271,0.3302,0.3327,0.3349,0.3372,0.3386,0.3412,0.3434,0.3466,0.3485,0.351,0.3541,0.3586,0.3606,0.3626,0.3634,0.3636,0.3637,0.3636,0.3632,0.3641,0.3632,0.3632,0.3632,0.3632,0.3633,0,0.3247,0.3267,0.329,0.3323,0.3342,0.3358,0.3386,0.3401,0.3422,0.3449,0.3471,0.35,0.3526,0.3558,0.3586,0.3595,0.3606,0.3602,0.3601,0.3605,0.3624,0.362,0.3592,0.3592,0.3592,0.3592,0.3592,0.3592,0.3243,0.3263,0.328,0.331,0.3331,0.3355,0.3369,0.3389,0.341,0.344,0.3461,0.3481,0.351,0.3539,0.3562,0.3571,0.3579,0.3572,0.3583,0.3601,0.3604,0.3608,0.3604,0.3574,0.3574,0.3563,0.3563,0.3563]}]]